User: anonymous   Login
Location: Terra Rouge Observatory
(46.0000°N, 62.7500°W)
Time: 21:59:27
(UTC-03:00)
Language:

NOSS 3-1 (A) - Orbit

View from above orbital plane
View from above orbital plane
View from above satellite
View from above satellite

Ground track
Ground track

The orbit data is extracted from the following two-line orbital elements,

1 26905U 01040A   16200.98972237 0.00000000  00000-0  00000-0 0    06
2 26905  63.4136 164.1443 0335000 357.6996   2.3004 13.40738734    05
Epoch (UTC): 18 July 2016 23:45:12
Eccentricity: 0.0335000
inclination: 63.4136°
perigee height: 856 km
apogee height: 1357 km
right ascension of ascending node: 164.1443°
argument of perigee: 357.6996°
revolutions per day: 13.40738734
mean anomaly at epoch: 2.3004°
orbit number at epoch: 0

The dashed part of the orbit path shows where the satellite is in the earth's shadow,  

DLR